Time,TemperatureF,DewpointF,PressureIn,WindDirection,WindDirectionDegrees,WindSpeedMPH,WindSpeedGustMPH,Humidity,HourlyPrecipIn,Conditions,Clouds,dailyrainin,SoftwareType,DateUTC
2013-01-19 00:02:00,27.3,16.7,30.36,WSW,248,12.0,12.0,64,0.00,,,0.00,Wunderground v.1.15,2013-01-19 05:02:00,
2013-01-19 00:03:00,27.3,16.7,30.36,SW,234,12.0,14.0,64,0.00,,,0.00,Wunderground v.1.15,2013-01-19 05:03:00,
2013-01-19 00:08:00,27.3,17.1,30.36,SW,236,11.0,14.0,65,0.00,,,0.00,Wunderground v.1.15,2013-01-19 05:08:00,
2013-01-19 00:10:00,27.3,17.1,30.36,SSW,207,11.0,11.0,65,0.00,,,0.00,Wunderground v.1.15,2013-01-19 05:10:00,
2013-01-19 00:16:00,27.3,17.8,30.36,WSW,252,11.0,13.0,67,0.00,,,0.00,Wunderground v.1.15,2013-01-19 05:16:00,
2013-01-19 00:21:00,27.4,17.9,30.35,SW,235,11.0,12.0,67,0.00,,,0.00,Wunderground v.1.15,2013-01-19 05:21:00,
2013-01-19 00:26:00,27.4,18.2,30.35,SW,233,11.0,13.0,68,0.00,,,0.00,Wunderground v.1.15,2013-01-19 05:26:00,
2013-01-19 00:31:00,27.4,18.6,30.35,WSW,255,11.0,14.0,69,0.00,,,0.00,Wunderground v.1.15,2013-01-19 05:31:00,
2013-01-19 00:36:00,27.6,18.8,30.35,West,275,12.0,14.0,69,0.00,,,0.00,Wunderground v.1.15,2013-01-19 05:36:00,
2013-01-19 00:42:00,27.7,18.8,30.35,WSW,250,12.0,12.0,69,0.00,,,0.00,Wunderground v.1.15,2013-01-19 05:42:00,
2013-01-19 00:48:00,27.7,18.8,30.35,West,267,12.0,15.0,69,0.00,,,0.00,Wunderground v.1.15,2013-01-19 05:48:00,
2013-01-19 00:54:00,27.8,18.9,30.35,WSW,254,12.0,12.0,69,0.00,,,0.00,Wunderground v.1.15,2013-01-19 05:54:00,
2013-01-19 01:00:00,27.8,19.3,30.35,West,259,11.0,13.0,70,0.00,,,0.00,Wunderground v.1.15,2013-01-19 06:00:00,
2013-01-19 01:05:00,27.7,19.2,30.35,WSW,247,11.0,14.0,70,0.00,,,0.00,Wunderground v.1.15,2013-01-19 06:05:00,
2013-01-19 01:11:00,27.8,18.9,30.35,SW,235,11.0,13.0,69,0.00,,,0.00,Wunderground v.1.15,2013-01-19 06:11:00,
2013-01-19 01:16:00,27.9,19.0,30.35,SW,236,11.0,13.0,69,0.00,,,0.00,Wunderground v.1.15,2013-01-19 06:16:00,
2013-01-19 01:21:00,27.9,19.0,30.35,SW,230,10.0,16.0,69,0.00,,,0.00,Wunderground v.1.15,2013-01-19 06:21:00,
2013-01-19 01:26:00,27.9,19.0,30.35,WSW,257,10.0,17.0,69,0.00,,,0.00,Wunderground v.1.15,2013-01-19 06:26:00,
2013-01-19 01:32:00,27.9,19.0,30.34,WSW,257,11.0,17.0,69,0.00,,,0.00,Wunderground v.1.15,2013-01-19 06:32:00,
2013-01-19 01:38:00,28.0,19.1,30.34,South,190,11.0,17.0,69,0.00,,,0.00,Wunderground v.1.15,2013-01-19 06:38:00,
2013-01-19 01:43:00,28.0,19.1,30.34,WSW,257,10.0,14.0,69,0.00,,,0.00,Wunderground v.1.15,2013-01-19 06:43:00,
2013-01-19 01:49:00,28.1,19.2,30.34,West,262,11.0,14.0,69,0.00,,,0.00,Wunderground v.1.15,2013-01-19 06:49:00,
2013-01-19 01:54:00,28.1,19.2,30.34,SW,234,11.0,17.0,69,0.00,,,0.00,Wunderground v.1.15,2013-01-19 06:54:00,
2013-01-19 02:00:00,28.1,19.2,30.34,WSW,250,11.0,12.0,69,0.00,,,0.00,Wunderground v.1.15,2013-01-19 07:00:00,
2013-01-19 02:05:00,28.2,19.3,30.34,West,261,11.0,14.0,69,0.00,,,0.00,Wunderground v.1.15,2013-01-19 07:05:00,
2013-01-19 02:11:00,28.1,19.2,30.34,WSW,243,10.0,13.0,69,0.00,,,0.00,Wunderground v.1.15,2013-01-19 07:11:00,
2013-01-19 02:17:00,28.2,19.0,30.34,West,268,10.0,16.0,68,0.00,,,0.00,Wunderground v.1.15,2013-01-19 07:17:00,
2013-01-19 02:22:00,28.2,19.0,30.34,WSW,248,10.0,16.0,68,0.00,,,0.00,Wunderground v.1.15,2013-01-19 07:22:00,
2013-01-19 02:28:00,28.3,19.4,30.33,WSW,252,10.0,16.0,69,0.00,,,0.00,Wunderground v.1.15,2013-01-19 07:28:00,
2013-01-19 02:34:00,28.4,19.5,30.33,WSW,246,11.0,15.0,69,0.00,,,0.00,Wunderground v.1.15,2013-01-19 07:34:00,
2013-01-19 02:39:00,28.5,19.6,30.33,SW,227,12.0,15.0,69,0.00,,,0.00,Wunderground v.1.15,2013-01-19 07:39:00,
2013-01-19 02:44:00,28.5,19.6,30.33,SW,221,12.0,20.0,69,0.00,,,0.00,Wunderground v.1.15,2013-01-19 07:44:00,
2013-01-19 02:50:00,28.6,19.7,30.32,SW,234,12.0,12.0,69,0.00,,,0.00,Wunderground v.1.15,2013-01-19 07:50:00,
2013-01-19 02:56:00,28.6,20.1,30.32,WSW,256,12.0,14.0,70,0.00,,,0.00,Wunderground v.1.15,2013-01-19 07:56:00,
2013-01-19 03:01:00,28.7,20.1,30.32,WSW,241,12.0,12.0,70,0.00,,,0.00,Wunderground v.1.15,2013-01-19 08:01:00,
2013-01-19 03:07:00,28.7,20.1,30.32,WSW,248,12.0,19.0,70,0.00,,,0.00,Wunderground v.1.15,2013-01-19 08:07:00,
2013-01-19 03:13:00,28.7,20.5,30.32,WSW,257,13.0,17.0,71,0.00,,,0.00,Wunderground v.1.15,2013-01-19 08:13:00,
2013-01-19 03:18:00,28.8,20.6,30.32,SW,221,13.0,17.0,71,0.00,,,0.00,Wunderground v.1.15,2013-01-19 08:18:00,
2013-01-19 03:23:00,28.8,20.6,30.32,SSW,212,13.0,20.0,71,0.00,,,0.00,Wunderground v.1.15,2013-01-19 08:23:00,
2013-01-19 03:29:00,28.8,20.9,30.31,WSW,240,13.0,20.0,72,0.00,,,0.00,Wunderground v.1.15,2013-01-19 08:29:00,
2013-01-19 03:34:00,28.7,20.8,30.32,WSW,256,12.0,17.0,72,0.00,,,0.00,Wunderground v.1.15,2013-01-19 08:34:00,
2013-01-19 03:39:00,28.7,20.8,30.31,SW,221,12.0,17.0,72,0.00,,,0.00,Wunderground v.1.15,2013-01-19 08:39:00,
2013-01-19 03:44:00,28.7,21.1,30.31,WSW,244,11.0,12.0,73,0.00,,,0.00,Wunderground v.1.15,2013-01-19 08:44:00,
2013-01-19 03:50:00,28.6,21.0,30.31,WSW,238,11.0,11.0,73,0.00,,,0.00,Wunderground v.1.15,2013-01-19 08:50:00,
2013-01-19 03:56:00,28.6,21.4,30.31,WSW,238,10.0,16.0,74,0.00,,,0.00,Wunderground v.1.15,2013-01-19 08:56:00,
2013-01-19 04:01:00,28.7,21.5,30.31,West,261,10.0,10.0,74,0.00,,,0.00,Wunderground v.1.15,2013-01-19 09:01:00,
2013-01-19 04:06:00,28.7,21.5,30.31,SW,222,10.0,13.0,74,0.00,,,0.00,Wunderground v.1.15,2013-01-19 09:06:00,
2013-01-19 04:12:00,28.7,21.8,30.31,WSW,246,11.0,12.0,75,0.00,,,0.00,Wunderground v.1.15,2013-01-19 09:12:00,
2013-01-19 04:17:00,28.7,21.8,30.30,WSW,252,11.0,12.0,75,0.00,,,0.00,Wunderground v.1.15,2013-01-19 09:17:00,
2013-01-19 04:23:00,28.7,21.8,30.30,WSW,247,11.0,13.0,75,0.00,,,0.00,Wunderground v.1.15,2013-01-19 09:23:00,
2013-01-19 04:28:00,28.7,22.1,30.30,WSW,238,11.0,13.0,76,0.00,,,0.00,Wunderground v.1.15,2013-01-19 09:28:00,
2013-01-19 04:33:00,28.8,22.2,30.30,WSW,246,12.0,13.0,76,0.00,,,0.00,Wunderground v.1.15,2013-01-19 09:33:00,
2013-01-19 04:39:00,28.8,22.2,30.29,WSW,248,12.0,17.0,76,0.00,,,0.00,Wunderground v.1.15,2013-01-19 09:39:00,
2013-01-19 04:44:00,28.9,22.3,30.29,WSW,249,12.0,14.0,76,0.00,,,0.00,Wunderground v.1.15,2013-01-19 09:44:00,
2013-01-19 04:50:00,29.0,22.4,30.29,SW,227,13.0,14.0,76,0.00,,,0.00,Wunderground v.1.15,2013-01-19 09:50:00,
2013-01-19 04:57:00,29.0,22.7,30.29,WSW,237,12.0,15.0,77,0.00,,,0.00,Wunderground v.1.15,2013-01-19 09:57:00,
2013-01-19 05:02:00,29.0,22.7,30.29,WSW,246,12.0,12.0,77,0.00,,,0.00,Wunderground v.1.15,2013-01-19 10:02:00,
2013-01-19 05:08:00,29.0,22.7,30.29,WSW,248,12.0,17.0,77,0.00,,,0.00,Wunderground v.1.15,2013-01-19 10:08:00,
2013-01-19 05:13:00,29.0,22.7,30.28,West,259,13.0,17.0,77,0.00,,,0.00,Wunderground v.1.15,2013-01-19 10:13:00,
2013-01-19 05:18:00,29.0,22.7,30.29,WSW,258,13.0,19.0,77,0.00,,,0.00,Wunderground v.1.15,2013-01-19 10:18:00,
2013-01-19 05:23:00,29.0,23.0,30.29,West,259,12.0,15.0,78,0.00,,,0.00,Wunderground v.1.15,2013-01-19 10:23:00,
2013-01-19 05:28:00,29.0,23.0,30.29,WSW,252,12.0,17.0,78,0.00,,,0.00,Wunderground v.1.15,2013-01-19 10:28:00,
2013-01-19 05:33:00,29.0,23.0,30.29,WSW,246,13.0,16.0,78,0.00,,,0.00,Wunderground v.1.15,2013-01-19 10:33:00,
2013-01-19 05:39:00,29.0,23.0,30.29,WSW,242,13.0,16.0,78,0.00,,,0.00,Wunderground v.1.15,2013-01-19 10:39:00,
2013-01-19 05:45:00,29.0,23.0,30.29,WSW,245,12.0,13.0,78,0.00,,,0.00,Wunderground v.1.15,2013-01-19 10:45:00,
2013-01-19 05:51:00,28.9,23.2,30.29,West,259,12.0,14.0,79,0.00,,,0.00,Wunderground v.1.15,2013-01-19 10:51:00,
2013-01-19 05:56:00,28.9,23.2,30.29,WSW,248,12.0,16.0,79,0.00,,,0.00,Wunderground v.1.15,2013-01-19 10:56:00,
2013-01-19 06:02:00,28.9,23.2,30.29,WSW,246,11.0,17.0,79,0.00,,,0.00,Wunderground v.1.15,2013-01-19 11:02:00,
2013-01-19 06:07:00,28.9,23.5,30.29,WSW,253,11.0,17.0,80,0.00,,,0.00,Wunderground v.1.15,2013-01-19 11:07:00,
2013-01-19 06:13:00,28.9,23.2,30.29,WSW,255,12.0,16.0,79,0.00,,,0.00,Wunderground v.1.15,2013-01-19 11:13:00,
2013-01-19 07:48:00,29.1,24.0,30.27,WSW,255,11.0,14.0,81,0.00,,,0.00,Wunderground v.1.15,2013-01-19 12:48:00,
2013-01-19 07:49:00,29.1,24.0,30.27,West,260,11.0,14.0,81,0.00,,,0.00,Wunderground v.1.15,2013-01-19 12:49:00,
2013-01-19 07:52:00,29.2,24.1,30.27,South,176,11.0,13.0,81,0.00,,,0.00,Wunderground v.1.15,2013-01-19 12:52:00,
2013-01-19 07:55:00,29.2,24.1,30.27,West,269,11.0,13.0,81,0.00,,,0.00,Wunderground v.1.15,2013-01-19 12:55:00,
2013-01-19 08:01:00,29.2,24.1,30.27,WSW,254,12.0,15.0,81,0.00,,,0.00,Wunderground v.1.15,2013-01-19 13:01:00,
2013-01-19 08:06:00,29.3,24.2,30.27,WSW,247,12.0,16.0,81,0.00,,,0.00,Wunderground v.1.15,2013-01-19 13:06:00,
2013-01-19 08:11:00,29.4,24.3,30.27,SW,236,12.0,19.0,81,0.00,,,0.00,Wunderground v.1.15,2013-01-19 13:11:00,
2013-01-19 08:16:00,29.6,24.2,30.27,West,260,13.0,19.0,80,0.00,,,0.00,Wunderground v.1.15,2013-01-19 13:16:00,
2013-01-19 08:22:00,29.7,24.3,30.28,SSW,207,12.0,17.0,80,0.00,,,0.00,Wunderground v.1.15,2013-01-19 13:22:00,
2013-01-19 08:27:00,29.9,24.5,30.27,WSW,254,12.0,17.0,80,0.00,,,0.00,Wunderground v.1.15,2013-01-19 13:27:00,
2013-01-19 08:32:00,30.2,24.5,30.28,WSW,248,12.0,19.0,79,0.00,,,0.00,Wunderground v.1.15,2013-01-19 13:32:00,
2013-01-19 08:38:00,30.5,24.8,30.28,WSW,245,12.0,19.0,79,0.00,,,0.00,Wunderground v.1.15,2013-01-19 13:38:00,
2013-01-19 08:43:00,30.8,25.1,30.28,WSW,249,12.0,14.0,79,0.00,,,0.00,Wunderground v.1.15,2013-01-19 13:43:00,
2013-01-19 08:49:00,31.0,24.9,30.28,West,269,12.0,20.0,78,0.00,,,0.00,Wunderground v.1.15,2013-01-19 13:49:00,
2013-01-19 08:55:00,31.3,25.2,30.28,WSW,244,13.0,16.0,78,0.00,,,0.00,Wunderground v.1.15,2013-01-19 13:55:00,
2013-01-19 09:00:00,31.6,25.2,30.28,West,260,13.0,16.0,77,0.00,,,0.00,Wunderground v.1.15,2013-01-19 14:00:00,
2013-01-19 09:05:00,31.8,25.4,30.28,West,259,13.0,17.0,77,0.00,,,0.00,Wunderground v.1.15,2013-01-19 14:05:00,
2013-01-19 09:11:00,32.1,25.4,30.28,WSW,248,13.0,13.0,76,0.00,,,0.00,Wunderground v.1.15,2013-01-19 14:11:00,
2013-01-19 09:16:00,32.4,25.7,30.28,West,263,12.0,19.0,76,0.00,,,0.00,Wunderground v.1.15,2013-01-19 14:16:00,
2013-01-19 09:22:00,32.8,25.7,30.28,WSW,242,12.0,14.0,75,0.00,,,0.00,Wunderground v.1.15,2013-01-19 14:22:00,
2013-01-19 09:27:00,33.0,25.9,30.28,WSW,257,13.0,20.0,75,0.00,,,0.00,Wunderground v.1.15,2013-01-19 14:27:00,
2013-01-19 09:33:00,33.4,26.0,30.28,WSW,251,12.0,14.0,74,0.00,,,0.00,Wunderground v.1.15,2013-01-19 14:33:00,
2013-01-19 09:39:00,33.8,26.1,30.28,West,260,12.0,21.0,73,0.00,,,0.00,Wunderground v.1.15,2013-01-19 14:39:00,
2013-01-19 09:45:00,34.0,25.9,30.27,West,265,13.0,16.0,72,0.00,,,0.00,Wunderground v.1.15,2013-01-19 14:45:00,
2013-01-19 09:51:00,34.4,26.3,30.28,West,259,13.0,13.0,72,0.00,,,0.00,Wunderground v.1.15,2013-01-19 14:51:00,
2013-01-19 09:56:00,34.7,26.3,30.28,WSW,258,13.0,19.0,71,0.00,,,0.00,Wunderground v.1.15,2013-01-19 14:56:00,
2013-01-19 10:01:00,35.0,26.5,30.28,WSW,257,13.0,16.0,71,0.00,,,0.00,Wunderground v.1.15,2013-01-19 15:01:00,
2013-01-19 10:07:00,35.4,26.9,30.28,WSW,252,12.0,16.0,71,0.00,,,0.00,Wunderground v.1.15,2013-01-19 15:07:00,
2013-01-19 10:12:00,35.8,27.0,30.28,WSW,254,11.0,14.0,70,0.00,,,0.00,Wunderground v.1.15,2013-01-19 15:12:00,
2013-01-19 10:18:00,36.3,27.1,30.28,WSW,239,10.0,14.0,69,0.00,,,0.00,Wunderground v.1.15,2013-01-19 15:18:00,
2013-01-19 10:23:00,36.6,27.0,30.27,WSW,257,10.0,11.0,68,0.00,,,0.00,Wunderground v.1.15,2013-01-19 15:23:00,
2013-01-19 10:29:00,36.8,27.2,30.27,West,260,11.0,13.0,68,0.00,,,0.00,Wunderground v.1.15,2013-01-19 15:29:00,
2013-01-19 10:35:00,37.1,27.2,30.27,SW,236,11.0,14.0,67,0.00,,,0.00,Wunderground v.1.15,2013-01-19 15:35:00,
2013-01-19 10:40:00,37.5,27.5,30.27,WSW,244,11.0,11.0,67,0.00,,,0.00,Wunderground v.1.15,2013-01-19 15:40:00,
2013-01-19 10:46:00,37.9,27.5,30.26,WSW,250,10.0,12.0,66,0.00,,,0.00,Wunderground v.1.15,2013-01-19 15:46:00,
2013-01-19 10:51:00,38.2,27.8,30.26,SW,226,10.0,10.0,66,0.00,,,0.00,Wunderground v.1.15,2013-01-19 15:51:00,
2013-01-19 10:56:00,38.5,28.1,30.26,SW,223,10.0,14.0,66,0.00,,,0.00,Wunderground v.1.15,2013-01-19 15:56:00,
2013-01-19 11:01:00,38.9,28.1,30.26,WSW,253,9.0,9.0,65,0.00,,,0.00,Wunderground v.1.15,2013-01-19 16:01:00,
2013-01-19 11:06:00,39.1,27.9,30.25,SW,236,10.0,16.0,64,0.00,,,0.00,Wunderground v.1.15,2013-01-19 16:06:00,
2013-01-19 11:12:00,39.4,28.2,30.25,WSW,258,10.0,10.0,64,0.00,,,0.00,Wunderground v.1.15,2013-01-19 16:12:00,
2013-01-19 11:18:00,39.6,28.0,30.24,SSW,206,10.0,16.0,63,0.00,,,0.00,Wunderground v.1.15,2013-01-19 16:18:00,
2013-01-19 11:23:00,39.8,28.2,30.24,WSW,247,11.0,13.0,63,0.00,,,0.00,Wunderground v.1.15,2013-01-19 16:23:00,
2013-01-19 11:28:00,40.2,28.6,30.23,WSW,256,10.0,13.0,63,0.00,,,0.00,Wunderground v.1.15,2013-01-19 16:28:00,
2013-01-19 11:34:00,40.4,28.4,30.23,WSW,252,11.0,13.0,62,0.00,,,0.00,Wunderground v.1.15,2013-01-19 16:34:00,
2013-01-19 11:39:00,40.8,28.8,30.22,SW,223,11.0,13.0,62,0.00,,,0.00,Wunderground v.1.15,2013-01-19 16:39:00,
2013-01-19 11:44:00,41.1,28.7,30.22,WSW,244,10.0,11.0,61,0.00,,,0.00,Wunderground v.1.15,2013-01-19 16:44:00,
2013-01-19 11:49:00,41.4,28.5,30.21,WSW,250,10.0,17.0,60,0.00,,,0.00,Wunderground v.1.15,2013-01-19 16:49:00,
2013-01-19 11:55:00,41.5,28.6,30.20,SSW,213,11.0,16.0,60,0.00,,,0.00,Wunderground v.1.15,2013-01-19 16:55:00,
2013-01-19 12:01:00,41.8,28.9,30.20,West,261,11.0,15.0,60,0.00,,,0.00,Wunderground v.1.15,2013-01-19 17:01:00,
2013-01-19 12:06:00,42.1,29.2,30.20,WSW,239,10.0,15.0,60,0.00,,,0.00,Wunderground v.1.15,2013-01-19 17:06:00,
2013-01-19 12:11:00,42.4,29.1,30.20,SW,232,10.0,14.0,59,0.00,,,0.00,Wunderground v.1.15,2013-01-19 17:11:00,
2013-01-19 12:18:00,42.7,28.9,30.19,WSW,245,10.0,14.0,58,0.00,,,0.00,Wunderground v.1.15,2013-01-19 17:18:00,
2013-01-19 12:23:00,43.0,29.2,30.18,West,259,10.0,14.0,58,0.00,,,0.00,Wunderground v.1.15,2013-01-19 17:23:00,
2013-01-19 12:28:00,43.3,29.5,30.18,WSW,250,11.0,15.0,58,0.00,,,0.00,Wunderground v.1.15,2013-01-19 17:28:00,
2013-01-19 12:34:00,43.4,28.7,30.17,WSW,254,11.0,18.0,56,0.00,,,0.00,Wunderground v.1.15,2013-01-19 17:34:00,
2013-01-19 12:39:00,43.5,29.3,30.17,SW,234,12.0,18.0,57,0.00,,,0.00,Wunderground v.1.15,2013-01-19 17:39:00,
2013-01-19 12:45:00,43.8,29.5,30.16,West,260,11.0,15.0,57,0.00,,,0.00,Wunderground v.1.15,2013-01-19 17:45:00,
2013-01-19 12:52:00,44.6,29.9,30.16,SSW,198,10.0,10.0,56,0.00,,,0.00,Wunderground v.1.15,2013-01-19 17:52:00,
2013-01-19 12:58:00,44.9,29.7,30.16,WSW,237,10.0,14.0,55,0.00,,,0.00,Wunderground v.1.15,2013-01-19 17:58:00,
2013-01-19 13:03:00,45.0,29.3,30.16,WSW,247,10.0,12.0,54,0.00,,,0.00,Wunderground v.1.15,2013-01-19 18:03:00,
2013-01-19 13:10:00,45.2,29.5,30.15,SW,227,11.0,14.0,54,0.00,,,0.00,Wunderground v.1.15,2013-01-19 18:10:00,
2013-01-19 13:19:00,45.6,29.9,30.15,WSW,257,11.0,15.0,54,0.00,,,0.00,Wunderground v.1.15,2013-01-19 18:19:00,
2013-01-19 13:24:00,45.8,29.6,30.14,WSW,247,12.0,15.0,53,0.00,,,0.00,Wunderground v.1.15,2013-01-19 18:24:00,
2013-01-19 13:30:00,46.3,30.1,30.14,SW,225,11.0,11.0,53,0.00,,,0.00,Wunderground v.1.15,2013-01-19 18:30:00,
2013-01-19 13:37:00,46.4,29.2,30.14,SSW,211,12.0,13.0,51,0.00,,,0.00,Wunderground v.1.15,2013-01-19 18:37:00,
2013-01-19 13:42:00,46.6,29.9,30.13,SW,215,11.0,11.0,52,0.00,,,0.00,Wunderground v.1.15,2013-01-19 18:42:00,
2013-01-19 13:48:00,46.9,29.7,30.13,WSW,250,11.0,14.0,51,0.00,,,0.00,Wunderground v.1.15,2013-01-19 18:48:00,
2013-01-19 13:54:00,47.0,29.3,30.13,WSW,240,12.0,15.0,50,0.00,,,0.00,Wunderground v.1.15,2013-01-19 18:54:00,
2013-01-19 13:59:00,47.2,30.0,30.13,SW,225,12.0,15.0,51,0.00,,,0.00,Wunderground v.1.15,2013-01-19 18:59:00,
2013-01-19 14:05:00,47.3,29.6,30.13,SSW,208,12.0,12.0,50,0.00,,,0.00,Wunderground v.1.15,2013-01-19 19:05:00,
2013-01-19 14:10:00,47.4,29.2,30.13,West,265,11.0,11.0,49,0.00,,,0.00,Wunderground v.1.15,2013-01-19 19:10:00,
2013-01-19 14:17:00,47.7,28.9,30.12,WSW,258,11.0,16.0,48,0.00,,,0.00,Wunderground v.1.15,2013-01-19 19:17:00,
2013-01-19 14:22:00,47.9,29.6,30.12,WSW,242,11.0,15.0,49,0.00,,,0.00,Wunderground v.1.15,2013-01-19 19:22:00,
2013-01-19 14:27:00,48.1,29.8,30.12,WSW,246,10.0,15.0,49,0.00,,,0.00,Wunderground v.1.15,2013-01-19 19:27:00,
2013-01-19 14:33:00,48.3,30.0,30.11,West,259,10.0,11.0,49,0.00,,,0.00,Wunderground v.1.15,2013-01-19 19:33:00,
2013-01-19 14:40:00,48.6,29.3,30.11,SW,225,9.0,9.0,47,0.00,,,0.00,Wunderground v.1.15,2013-01-19 19:40:00,
2013-01-19 14:45:00,48.7,29.4,30.11,SW,234,10.0,17.0,47,0.00,,,0.00,Wunderground v.1.15,2013-01-19 19:45:00,
2013-01-19 14:50:00,48.6,29.3,30.11,WSW,242,10.0,13.0,47,0.00,,,0.00,Wunderground v.1.15,2013-01-19 19:50:00,
2013-01-19 14:56:00,48.5,29.7,30.10,SW,232,11.0,15.0,48,0.00,,,0.00,Wunderground v.1.15,2013-01-19 19:56:00,
2013-01-19 15:02:00,48.6,30.3,30.11,WSW,249,9.0,10.0,49,0.00,,,0.00,Wunderground v.1.15,2013-01-19 20:02:00,
2013-01-19 15:08:00,48.6,30.3,30.10,SSW,211,9.0,17.0,49,0.00,,,0.00,Wunderground v.1.15,2013-01-19 20:08:00,
2013-01-19 15:17:00,48.7,30.9,30.10,SSW,208,8.0,10.0,50,0.00,,,0.00,Wunderground v.1.15,2013-01-19 20:17:00,
2013-01-19 15:22:00,48.7,30.9,30.10,SSW,193,7.0,8.0,50,0.00,,,0.00,Wunderground v.1.15,2013-01-19 20:22:00,
2013-01-19 15:27:00,48.4,31.1,30.10,SW,215,8.0,16.0,51,0.00,,,0.00,Wunderground v.1.15,2013-01-19 20:27:00,
2013-01-19 15:33:00,48.2,30.9,30.09,SW,230,8.0,8.0,51,0.00,,,0.00,Wunderground v.1.15,2013-01-19 20:33:00,
2013-01-19 15:39:00,48.1,30.8,30.09,SW,225,7.0,10.0,51,0.00,,,0.00,Wunderground v.1.15,2013-01-19 20:39:00,
2013-01-19 15:45:00,47.8,31.0,30.09,SW,217,8.0,13.0,52,0.00,,,0.00,Wunderground v.1.15,2013-01-19 20:45:00,
2013-01-19 15:53:00,47.5,30.7,30.09,West,266,8.0,10.0,52,0.00,,,0.00,Wunderground v.1.15,2013-01-19 20:53:00,
2013-01-19 15:59:00,47.4,31.1,30.09,SSW,213,7.0,10.0,53,0.00,,,0.00,Wunderground v.1.15,2013-01-19 20:59:00,
2013-01-19 16:04:00,47.2,31.4,30.08,SW,222,6.0,9.0,54,0.00,,,0.00,Wunderground v.1.15,2013-01-19 21:04:00,
2013-01-19 16:09:00,46.8,30.6,30.08,South,186,6.0,9.0,53,0.00,,,0.00,Wunderground v.1.15,2013-01-19 21:09:00,
2013-01-19 16:14:00,46.5,30.3,30.08,SW,225,6.0,9.0,53,0.00,,,0.00,Wunderground v.1.15,2013-01-19 21:14:00,
2013-01-19 16:20:00,46.5,30.7,30.08,WSW,247,6.0,6.0,54,0.00,,,0.00,Wunderground v.1.15,2013-01-19 21:20:00,
2013-01-19 16:25:00,46.4,30.6,30.08,WSW,242,6.0,7.0,54,0.00,,,0.00,Wunderground v.1.15,2013-01-19 21:25:00,
2013-01-19 16:31:00,46.3,30.5,30.07,SW,215,6.0,7.0,54,0.00,,,0.00,Wunderground v.1.15,2013-01-19 21:31:00,
2013-01-19 16:37:00,46.0,30.3,30.07,SW,234,7.0,13.0,54,0.00,,,0.00,Wunderground v.1.15,2013-01-19 21:37:00,
2013-01-19 16:43:00,45.7,30.0,30.07,WSW,238,7.0,11.0,54,0.00,,,0.00,Wunderground v.1.15,2013-01-19 21:43:00,
2013-01-19 16:48:00,45.5,30.3,30.07,SW,225,7.0,11.0,55,0.00,,,0.00,Wunderground v.1.15,2013-01-19 21:48:00,
2013-01-19 16:53:00,45.1,30.8,30.07,SW,224,7.0,8.0,57,0.00,,,0.00,Wunderground v.1.15,2013-01-19 21:53:00,
2013-01-19 16:59:00,44.6,30.7,30.07,SW,219,7.0,11.0,58,0.00,,,0.00,Wunderground v.1.15,2013-01-19 21:59:00,
2013-01-19 17:05:00,44.0,30.6,30.07,SSW,211,7.0,11.0,59,0.00,,,0.00,Wunderground v.1.15,2013-01-19 22:05:00,
2013-01-19 17:11:00,43.6,30.6,30.06,WSW,243,7.0,7.0,60,0.00,,,0.00,Wunderground v.1.15,2013-01-19 22:11:00,
2013-01-19 17:17:00,43.1,30.6,30.06,SW,231,7.0,10.0,61,0.00,,,0.00,Wunderground v.1.15,2013-01-19 22:17:00,
2013-01-19 17:23:00,42.8,30.7,30.06,SW,232,7.0,9.0,62,0.00,,,0.00,Wunderground v.1.15,2013-01-19 22:23:00,
2013-01-19 17:28:00,42.5,30.8,30.06,SW,235,7.0,9.0,63,0.00,,,0.00,Wunderground v.1.15,2013-01-19 22:28:00,
2013-01-19 17:33:00,42.4,30.7,30.06,SW,227,7.0,8.0,63,0.00,,,0.00,Wunderground v.1.15,2013-01-19 22:33:00,
2013-01-19 17:38:00,42.2,30.5,30.06,WSW,237,7.0,8.0,63,0.00,,,0.00,Wunderground v.1.15,2013-01-19 22:38:00,
2013-01-19 17:44:00,42.0,30.7,30.06,SW,229,7.0,10.0,64,0.00,,,0.00,Wunderground v.1.15,2013-01-19 22:44:00,
2013-01-19 17:49:00,41.9,30.6,30.06,SW,219,7.0,10.0,64,0.00,,,0.00,Wunderground v.1.15,2013-01-19 22:49:00,
2013-01-19 17:54:00,41.8,30.5,30.06,SW,221,7.0,11.0,64,0.00,,,0.00,Wunderground v.1.15,2013-01-19 22:54:00,
2013-01-19 17:59:00,41.7,30.8,30.05,SW,234,8.0,11.0,65,0.00,,,0.00,Wunderground v.1.15,2013-01-19 22:59:00,
2013-01-19 18:04:00,41.5,30.6,30.05,SW,219,7.0,8.0,65,0.00,,,0.00,Wunderground v.1.15,2013-01-19 23:04:00,
2013-01-19 18:10:00,41.4,30.5,30.05,SW,221,7.0,8.0,65,0.00,,,0.00,Wunderground v.1.15,2013-01-19 23:10:00,
2013-01-19 18:17:00,41.4,30.5,30.05,SW,216,8.0,10.0,65,0.00,,,0.00,Wunderground v.1.15,2013-01-19 23:17:00,
2013-01-19 18:23:00,41.3,30.8,30.04,SW,221,8.0,14.0,66,0.00,,,0.00,Wunderground v.1.15,2013-01-19 23:23:00,
2013-01-19 18:28:00,41.2,30.7,30.04,SW,229,9.0,16.0,66,0.00,,,0.00,Wunderground v.1.15,2013-01-19 23:28:00,
2013-01-19 18:34:00,41.0,30.5,30.04,SW,232,8.0,11.0,66,0.00,,,0.00,Wunderground v.1.15,2013-01-19 23:34:00,
2013-01-19 18:40:00,41.0,30.5,30.04,SSW,209,9.0,9.0,66,0.00,,,0.00,Wunderground v.1.15,2013-01-19 23:40:00,
2013-01-19 18:46:00,40.9,30.8,30.04,SW,215,8.0,12.0,67,0.00,,,0.00,Wunderground v.1.15,2013-01-19 23:46:00,
2013-01-19 18:53:00,40.7,30.6,30.03,SSW,205,8.0,8.0,67,0.00,,,0.00,Wunderground v.1.15,2013-01-19 23:53:00,
2013-01-19 18:58:00,40.7,30.6,30.04,SW,229,8.0,12.0,67,0.00,,,0.00,Wunderground v.1.15,2013-01-19 23:58:00,
2013-01-19 19:03:00,40.6,30.5,30.03,SW,220,9.0,11.0,67,0.00,,,0.00,Wunderground v.1.15,2013-01-20 00:03:00,
2013-01-19 19:08:00,40.5,30.8,30.03,SW,236,8.0,11.0,68,0.00,,,0.00,Wunderground v.1.15,2013-01-20 00:08:00,
2013-01-19 19:14:00,40.7,31.0,30.03,SSW,211,9.0,9.0,68,0.00,,,0.00,Wunderground v.1.15,2013-01-20 00:14:00,
2013-01-19 19:20:00,40.7,31.0,30.03,WSW,251,9.0,10.0,68,0.00,,,0.00,Wunderground v.1.15,2013-01-20 00:20:00,
2013-01-19 19:25:00,40.7,31.0,30.03,SW,227,9.0,11.0,68,0.00,,,0.00,Wunderground v.1.15,2013-01-20 00:25:00,
2013-01-19 19:30:00,40.7,31.0,30.03,WSW,250,9.0,10.0,68,0.00,,,0.00,Wunderground v.1.15,2013-01-20 00:30:00,
2013-01-19 19:35:00,40.7,31.0,30.02,WSW,243,9.0,12.0,68,0.00,,,0.00,Wunderground v.1.15,2013-01-20 00:35:00,
2013-01-19 19:43:00,40.6,30.9,30.02,West,259,9.0,12.0,68,0.00,,,0.00,Wunderground v.1.15,2013-01-20 00:43:00,
2013-01-19 19:49:00,40.6,30.9,30.02,WSW,251,9.0,14.0,68,0.00,,,0.00,Wunderground v.1.15,2013-01-20 00:49:00,
2013-01-19 19:55:00,40.6,31.2,30.02,SW,233,10.0,16.0,69,0.00,,,0.00,Wunderground v.1.15,2013-01-20 00:55:00,
2013-01-19 20:01:00,40.4,31.4,30.01,WSW,252,10.0,10.0,70,0.00,,,0.00,Wunderground v.1.15,2013-01-20 01:01:00,
2013-01-19 20:07:00,40.3,31.3,30.01,West,259,10.0,10.0,70,0.00,,,0.00,Wunderground v.1.15,2013-01-20 01:07:00,
2013-01-19 20:15:00,40.4,31.4,30.01,West,261,10.0,17.0,70,0.00,,,0.00,Wunderground v.1.15,2013-01-20 01:15:00,
2013-01-19 20:20:00,40.5,31.1,30.01,SW,236,11.0,11.0,69,0.00,,,0.00,Wunderground v.1.15,2013-01-20 01:20:00,
2013-01-19 20:27:00,40.6,31.2,30.00,WSW,239,11.0,14.0,69,0.00,,,0.00,Wunderground v.1.15,2013-01-20 01:27:00,
2013-01-19 20:33:00,40.7,31.3,30.00,SW,221,11.0,16.0,69,0.00,,,0.00,Wunderground v.1.15,2013-01-20 01:33:00,
2013-01-19 20:39:00,40.6,31.2,30.00,SW,224,12.0,17.0,69,0.00,,,0.00,Wunderground v.1.15,2013-01-20 01:39:00,
2013-01-19 20:45:00,40.6,31.2,30.00,SW,215,11.0,14.0,69,0.00,,,0.00,Wunderground v.1.15,2013-01-20 01:45:00,
2013-01-19 20:51:00,40.5,31.1,30.00,WSW,256,11.0,11.0,69,0.00,,,0.00,Wunderground v.1.15,2013-01-20 01:51:00,
2013-01-19 20:56:00,40.4,31.4,30.00,WSW,252,11.0,13.0,70,0.00,,,0.00,Wunderground v.1.15,2013-01-20 01:56:00,
2013-01-19 21:03:00,40.2,31.2,30.00,WSW,251,10.0,13.0,70,0.00,,,0.00,Wunderground v.1.15,2013-01-20 02:03:00,
2013-01-19 21:09:00,40.1,31.1,29.99,WSW,254,10.0,13.0,70,0.00,,,0.00,Wunderground v.1.15,2013-01-20 02:09:00,
2013-01-19 21:15:00,40.0,31.0,29.99,WSW,250,11.0,17.0,70,0.00,,,0.00,Wunderground v.1.15,2013-01-20 02:15:00,
2013-01-19 21:20:00,39.9,30.9,29.98,WSW,250,11.0,11.0,70,0.00,,,0.00,Wunderground v.1.15,2013-01-20 02:20:00,
2013-01-19 21:26:00,39.7,30.7,29.98,WSW,255,11.0,11.0,70,0.00,,,0.00,Wunderground v.1.15,2013-01-20 02:26:00,
2013-01-19 21:32:00,39.7,30.7,29.98,West,260,10.0,12.0,70,0.00,,,0.00,Wunderground v.1.15,2013-01-20 02:32:00,
2013-01-19 21:38:00,39.7,30.4,29.97,West,260,11.0,15.0,69,0.00,,,0.00,Wunderground v.1.15,2013-01-20 02:38:00,
2013-01-19 21:43:00,39.7,30.4,29.98,WSW,255,12.0,13.0,69,0.00,,,0.00,Wunderground v.1.15,2013-01-20 02:43:00,
2013-01-19 21:49:00,39.6,30.3,29.97,SW,222,11.0,14.0,69,0.00,,,0.00,Wunderground v.1.15,2013-01-20 02:49:00,
2013-01-19 21:54:00,39.6,30.3,29.97,West,262,11.0,15.0,69,0.00,,,0.00,Wunderground v.1.15,2013-01-20 02:54:00,
2013-01-19 21:59:00,39.3,30.0,29.97,WSW,253,10.0,15.0,69,0.00,,,0.00,Wunderground v.1.15,2013-01-20 02:59:00,
2013-01-19 22:05:00,39.2,29.9,29.96,West,265,10.0,14.0,69,0.00,,,0.00,Wunderground v.1.15,2013-01-20 03:05:00,
2013-01-19 22:11:00,39.2,29.9,29.96,WSW,244,11.0,15.0,69,0.00,,,0.00,Wunderground v.1.15,2013-01-20 03:11:00,
2013-01-19 22:17:00,39.2,29.5,29.96,WSW,240,10.0,15.0,68,0.00,,,0.00,Wunderground v.1.15,2013-01-20 03:17:00,
2013-01-19 22:23:00,39.1,29.4,29.95,WSW,244,9.0,12.0,68,0.00,,,0.00,Wunderground v.1.15,2013-01-20 03:23:00,
2013-01-19 22:29:00,39.2,29.5,29.95,West,259,10.0,12.0,68,0.00,,,0.00,Wunderground v.1.15,2013-01-20 03:29:00,
2013-01-19 22:34:00,39.3,29.3,29.95,WSW,254,11.0,12.0,67,0.00,,,0.00,Wunderground v.1.15,2013-01-20 03:34:00,
2013-01-19 22:40:00,39.3,29.3,29.95,WSW,256,11.0,11.0,67,0.00,,,0.00,Wunderground v.1.15,2013-01-20 03:40:00,
2013-01-19 22:45:00,39.4,29.0,29.94,WSW,256,12.0,12.0,66,0.00,,,0.00,Wunderground v.1.15,2013-01-20 03:45:00,
2013-01-19 22:52:00,39.5,29.1,29.94,WSW,241,12.0,18.0,66,0.00,,,0.00,Wunderground v.1.15,2013-01-20 03:52:00,
2013-01-19 22:57:00,39.6,28.8,29.93,West,264,12.0,18.0,65,0.00,,,0.00,Wunderground v.1.15,2013-01-20 03:57:00,
2013-01-19 23:02:00,39.8,29.0,29.93,WSW,253,13.0,14.0,65,0.00,,,0.00,Wunderground v.1.15,2013-01-20 04:02:00,
2013-01-19 23:07:00,40.0,28.8,29.93,WSW,241,13.0,17.0,64,0.00,,,0.00,Wunderground v.1.15,2013-01-20 04:07:00,
2013-01-19 23:13:00,40.1,28.9,29.93,WSW,257,13.0,16.0,64,0.00,,,0.00,Wunderground v.1.15,2013-01-20 04:13:00,
2013-01-19 23:18:00,40.2,29.0,29.92,West,262,13.0,16.0,64,0.00,,,0.00,Wunderground v.1.15,2013-01-20 04:18:00,
2013-01-19 23:24:00,40.3,29.1,29.92,West,267,13.0,15.0,64,0.00,,,0.00,Wunderground v.1.15,2013-01-20 04:24:00,
2013-01-19 23:30:00,40.3,28.7,29.92,West,269,13.0,13.0,63,0.00,,,0.00,Wunderground v.1.15,2013-01-20 04:30:00,
2013-01-19 23:36:00,40.2,28.6,29.92,WSW,246,12.0,17.0,63,0.00,,,0.00,Wunderground v.1.15,2013-01-20 04:36:00,
2013-01-19 23:41:00,40.2,29.0,29.91,WSW,244,13.0,13.0,64,0.00,,,0.00,Wunderground v.1.15,2013-01-20 04:41:00,
2013-01-19 23:47:00,40.1,28.9,29.91,WSW,244,13.0,16.0,64,0.00,,,0.00,Wunderground v.1.15,2013-01-20 04:47:00,
2013-01-19 23:54:00,40.0,28.8,29.90,WSW,257,13.0,16.0,64,0.00,,,0.00,Wunderground v.1.15,2013-01-20 04:54:00,